Showing default

YAOGAN-30 F, 43030

Orbit data source: Space-Track

YAOGAN-30 F, 43030 is a payload satellite owned by PLA SSF (CN) in LEO that was launched on Fri, 24 Nov 2017 UTC via a CHANG ZHENG 2C launch vehicle from the Xichang Space Center, China (XSC). Payload-class satellites include a variety of spacecraft equipped with specific instruments for various scientific and technological missions. These include communications satellites like Starlink; space stations such as the ISS; scientific satellites like the Hubble; Earth observation satellites from companies like Planet Labs, Umbra, and HawkEye 360; GPS; miniature CubeSats for education and research; and military/defense satellites.

Loading next visibility...
Identifier
43030, 2017-075C
Orbit
LEO
Country
Flag of CNCN / PRC
Related business
Manufacturer
SECM
Mission
Operational Defense Sigint
Bus & Motor
Unknown
Mass
~500 kg wet, ~500 kg dry
Launch date (UTC)
2017-11-24 (8 years ago)
Launch vehicle
CHANG ZHENG 2C
Launch site
Xichang Space Center, China (XSC)
Object type
Payload
Rocket body
Debris
Shape & HBR
Box + 2 Pan, 0.5 m
Radar Cross Section
0.446 m², Large (>1 m²)

Expand to show TLE details & history
Last TLE update: 9 hours ago

TLE from 9 hours ago
0 YAOGAN-30 F
1 43030U 17075C   25261.95036788  .00003003  00000-0  23542-3 0  9997
2 43030  34.9943 121.1239 0002290 231.5190 128.5313 15.00560817426623
Epoch: 2025-09-18T22:48Z
TLE epoch observation values (Epoch: 2025-09-18T22:48:31.784Z)
Latitude
0.00001°
Longitude
140.88687°
Altitude
565.074 km
Speed
7.58 km/s
True Right ascension
08h 04m 29s
True Declination
0° 00' 00"
Sunlit
Object was in daylight at epoch
Visualization orbit readout
Latitude
Unknown
Longitude
Unknown
Altitude
Unknown
Speed
Unknown
Apparent Right ascension
Unknown
Apparent Declination
Unknown
Sunlit
N/A
Visualization observer readout
Local Sidereal Time
00:35:02
Azimuth
Unknown
Elevation
Unknown
Doppler factor
Unknown
Orbital elements
Apogee altitude
569.976 km
Perigee altitude
566.794 km
Semi-major axis
6,946.522 km
Eccentricity
0.00023
Inclination
34.9943°
RAAN
121.1239°
Arg. of periapsis
231.519°
True anomaly
128.55182°
Mean anomaly
128.5313°
Eccentric anomaly
128.54156°
Mean motion
3.7488 °/min
Orbital period
96.03 mins
BSTAR
0.00023542
Loading maneuver chart data...
Computing Atmospheric mass density...
Loading historical data...
Loading historical data...
Loading historical data...
Loading historical data...
Loading historical data...
Loading historical data...
Loading historical data...
Other satellites on launch #75 in the year 2017 (2017-11-24 UTC)

Documentation

Showing up to 5 results
|